COSMOS 2491 DEB, 57553

Orbit data source: Space-Track

COSMOS 2491 DEB, 57553 is space debris in LEO originally from a launch on Wed, 25 Dec 2013 UTC launched from the Plesetsk Missile And Space Complex (PKMTR). Debris objects in space refer to the collection of defunct objects orbiting the Earth. Examples of debris include non-operational satellites, rocket bodies, and fragments generated from explosions, collisions, or faulty payload assembly.

Loading next visibility...
Identifier
57553, 2013-076AQ
Orbit
LEO
Country
Flag of CISCIS
Related business
Manufacturer
TsNIIKhM
Mission
Spacecraft
Bus & Motor
Unknown
Mass
Unknown
Launch date (UTC)
2013-12-25 (13 years ago)
Launch vehicle
Unknown
Launch site
Plesetsk Missile And Space Complex (PKMTR)
Object type
Payload
Rocket body
Debris
Shape & HBR
Unknown shape, 0.1 m
Radar Cross Section
Small (<0.1 m²)

Expand to show TLE details & history
Last TLE update: 1 month ago

TLE from 1 month ago
0 COSMOS 2491 DEB
1 57553U 13076AQ  26223.40509507  .00000076  00000-0  43042-3 0  9996
2 57553  82.4826 113.2784 0044255 192.2470 167.7542 12.50322985148673
Epoch: 2026-08-11T09:43Z
TLE epoch observation values (Epoch: 2026-08-11T09:43:20.214Z)
Latitude
Longitude
7.57032°
Altitude
1,499.779 km
Speed
7.099 km/s
True Right ascension
07h 33m 06s
True Declination
0° 00' 00"
Sunlit
Object was in daylight at epoch
Visualization orbit readout
Latitude
Unknown
Longitude
Unknown
Altitude
Unknown
Speed
Unknown
Apparent Right ascension
Unknown
Apparent Declination
Unknown
Sunlit
N/A
Visualization observer readout
Local Sidereal Time
23:21:20
Azimuth
Unknown
Elevation
Unknown
Doppler factor
Unknown
Orbital elements
Apogee altitude
1,495.175 km
Perigee altitude
1,425.796 km
Semi-major axis
7,838.623 km
Eccentricity
0.00443
Inclination
82.4826°
RAAN
113.2784°
Arg. of periapsis
192.247°
True anomaly
167.86119°
Mean anomaly
167.7542°
Eccentric anomaly
167.80775°
Mean motion
3.1274 °/min
Orbital period
115.11 mins
BSTAR
0.00043042
Loading maneuver chart data...
Computing Atmospheric mass density...
Loading historical data...
Loading historical data...
Loading historical data...
Loading historical data...
Loading historical data...
Loading historical data...
Loading historical data...

Documentation

Showing up to 5 results
|